CZ-4 DEB, 26128

Orbit data source: Space-Track

CZ-4 DEB, 26128 is space debris in SSO originally from a launch on Thu, 14 Oct 1999 UTC launched from the Taiyaun Space Center, China (TSC). Debris objects in space refer to the collection of defunct objects orbiting the Earth. Examples of debris include non-operational satellites, rocket bodies, and fragments generated from explosions, collisions, or faulty payload assembly.

Loading next visibility...
Identifier
26128, 1999-057Q
Orbit
SSO
Country
Flag of CNCN / PRC
Related business
Manufacturer
Unknown
Mission
Spacecraft
Bus & Motor
Unknown
Mass
Unknown
Launch date (UTC)
1999-10-14 (26 years ago)
Launch vehicle
Unknown
Launch site
Taiyaun Space Center, China (TSC)
Object type
Payload
Rocket body
Debris
Shape & HBR
Unknown shape, 0.1 m
Radar Cross Section
Small (<0.1 m²)

Expand to show TLE details & history
Last TLE update: 12 hours ago

TLE from 12 hours ago
0 CZ-4 DEB
1 26128U 99057Q   25289.04584487  .00011657  00000-0  85278-3 0  9998
2 26128  98.6824  99.9297 0022082  92.3283  35.9725 15.03596738378819
Epoch: 2025-10-16T01:06Z
TLE epoch observation values (Epoch: 2025-10-16T01:06:00.996Z)
Latitude
50.83525°
Longitude
-110.64022°
Altitude
551.595 km
Speed
7.598 km/s
True Right ascension
19h 22m 42s
True Declination
50° 39' 42"
Sunlit
Object was in daylight at epoch
Visualization orbit readout
Latitude
Unknown
Longitude
Unknown
Altitude
Unknown
Speed
Unknown
Apparent Right ascension
Unknown
Apparent Declination
Unknown
Sunlit
N/A
Visualization observer readout
Local Sidereal Time
07:49:39
Azimuth
Unknown
Elevation
Unknown
Doppler factor
Unknown
Orbital elements
Apogee altitude
568.168 km
Perigee altitude
537.558 km
Semi-major axis
6,931 km
Eccentricity
0.00221
Inclination
98.6824°
RAAN
99.9297°
Arg. of periapsis
92.3283°
True anomaly
36.12147°
Mean anomaly
35.9725°
Eccentric anomaly
36.04695°
Mean motion
3.7614 °/min
Orbital period
95.71 mins
BSTAR
0.00085278
Loading maneuver chart data...
Computing Atmospheric mass density...

Documentation

Showing up to 5 results
|